CCM61TA LFML-LFKJ

Flight info

Callsign CCM61TA
Flight time 0h 36m
Altitude 23000
Route TINOT Z154 RUBAS
Aircraft A320/M-SDE3FGHIRWY/LB1

Departure

Time 2026-05-04 16:41
Airport Marseille Provence Airport (LFML)

Arrival

Time 2026-05-04 17:17
Airport Ajaccio Napoléon Bonaparte airport (LFKJ)
Time Latitude Longitude Altitude Speed Heading
2026-05-04 16:26 43.43883 5.22478 47 ft 0 kts 265°
2026-05-04 16:31 43.43908 5.22536 44 ft 0 kts 165°
2026-05-04 16:34 43.43891 5.22542 44 ft 7 kts 165°
2026-05-04 16:34 43.43820 5.22544 49 ft 11 kts 206°
2026-05-04 16:35 43.43730 5.22312 48 ft 10 kts 255°
2026-05-04 16:35 43.43814 5.21938 41 ft 24 kts 312°
2026-05-04 16:36 43.43940 5.21760 36 ft 28 kts 314°
2026-05-04 16:36 43.43941 5.21457 31 ft 23 kts 313°
2026-05-04 16:37 43.44203 5.21084 22 ft 31 kts 314°
2026-05-04 16:37 43.44307 5.20891 18 ft 25 kts 299°
2026-05-04 16:37 43.44515 5.20570 18 ft 18 kts 313°
2026-05-04 16:38 43.44681 5.20334 18 ft 19 kts 314°
2026-05-04 16:39 43.44982 5.19843 17 ft 14 kts 248°
2026-05-04 16:39 43.44857 5.19811 17 ft 0 kts 133°
2026-05-04 16:40 43.44824 5.19859 17 ft 32 kts 134°
2026-05-04 16:40 43.43819 5.21288 61 ft 158 kts 134°
2026-05-04 16:41 43.42259 5.23322 1657 ft 152 kts 145°
2026-05-04 16:41 43.39024 5.26091 3047 ft 220 kts 146°
2026-05-04 16:42 43.34820 5.29676 5715 ft 248 kts 149°
2026-05-04 16:43 43.31746 5.32177 7370 ft 263 kts 160°
2026-05-04 16:43 43.28104 5.32879 9207 ft 267 kts 181°
2026-05-04 16:43 43.26272 5.32915 10171 ft 269 kts 181°
2026-05-04 16:44 43.17590 5.33107 11937 ft 339 kts 181°
2026-05-04 16:45 43.12787 5.33230 13447 ft 348 kts 181°
2026-05-04 16:46 43.06219 5.33387 15190 ft 361 kts 181°
2026-05-04 16:46 43.00298 5.33490 16724 ft 369 kts 182°
2026-05-04 16:47 42.95963 5.33312 17826 ft 375 kts 184°
2026-05-04 16:47 42.90743 5.32908 19144 ft 379 kts 185°
2026-05-04 16:48 42.82729 5.32317 20783 ft 390 kts 185°
2026-05-04 16:48 42.80005 5.32144 21323 ft 393 kts 185°
2026-05-04 16:49 42.74542 5.32983 22344 ft 408 kts 164°
2026-05-04 16:49 42.69657 5.37136 22954 ft 428 kts 137°
2026-05-04 16:50 42.66551 5.44358 22970 ft 459 kts 111°
2026-05-04 16:50 42.64516 5.52605 22976 ft 461 kts 111°
2026-05-04 16:51 42.62436 5.60838 22979 ft 461 kts 112°
2026-05-04 16:51 42.61403 5.64895 22981 ft 461 kts 112°
2026-05-04 16:51 42.59312 5.73131 22972 ft 460 kts 111°
2026-05-04 16:52 42.57232 5.81328 22992 ft 459 kts 112°
2026-05-04 16:52 42.56185 5.85427 22993 ft 459 kts 112°
2026-05-04 16:53 42.54107 5.93565 22987 ft 458 kts 112°
2026-05-04 16:53 42.50960 6.05828 22991 ft 458 kts 112°
2026-05-04 16:54 42.49913 6.09908 22990 ft 458 kts 112°
2026-05-04 16:55 42.45726 6.26136 23014 ft 457 kts 112°
2026-05-04 16:55 42.43602 6.34261 23003 ft 457 kts 112°
2026-05-04 16:56 42.41488 6.42371 23007 ft 457 kts 112°
2026-05-04 16:56 42.38309 6.54552 22992 ft 457 kts 112°
2026-05-04 16:57 42.37260 6.58561 22995 ft 458 kts 112°
2026-05-04 16:57 42.35123 6.66684 22998 ft 458 kts 112°
2026-05-04 16:58 42.31898 6.78858 23006 ft 459 kts 112°
2026-05-04 16:58 42.30819 6.82923 23020 ft 459 kts 112°
2026-05-04 16:59 42.28664 6.91040 23001 ft 459 kts 112°
2026-05-04 17:00 42.24322 7.07276 23002 ft 460 kts 112°
2026-05-04 17:00 42.21061 7.19381 22994 ft 459 kts 112°
2026-05-04 17:01 42.18876 7.27478 22966 ft 459 kts 112°
2026-05-04 17:01 42.16718 7.35475 21507 ft 449 kts 112°
2026-05-04 17:02 42.14594 7.43279 20120 ft 439 kts 113°
2026-05-04 17:02 42.12507 7.50921 18843 ft 429 kts 113°
2026-05-04 17:03 42.11478 7.54670 18271 ft 426 kts 113°
2026-05-04 17:03 42.10453 7.58405 18013 ft 425 kts 113°
2026-05-04 17:03 42.08525 7.65901 17062 ft 420 kts 104°
2026-05-04 17:04 42.07894 7.73595 14869 ft 406 kts 98°
2026-05-04 17:04 42.07385 7.80964 13070 ft 385 kts 98°
2026-05-04 17:05 42.06872 7.88095 12088 ft 391 kts 98°
2026-05-04 17:05 42.06334 7.95311 12021 ft 370 kts 98°
2026-05-04 17:06 42.05859 8.01851 12025 ft 333 kts 98°
2026-05-04 17:06 42.05632 8.04880 12027 ft 319 kts 99°
2026-05-04 17:07 42.05184 8.10722 12028 ft 315 kts 99°
2026-05-04 17:07 42.05031 8.12703 12028 ft 314 kts 99°
2026-05-04 17:07 42.04733 8.16569 11614 ft 312 kts 99°
2026-05-04 17:07 42.04510 8.19472 10900 ft 311 kts 99°
2026-05-04 17:08 42.04287 8.22365 10246 ft 308 kts 98°
2026-05-04 17:08 42.03848 8.28029 8881 ft 300 kts 98°
2026-05-04 17:08 42.03630 8.30801 8187 ft 296 kts 98°
2026-05-04 17:09 42.03418 8.33536 7611 ft 289 kts 98°
2026-05-04 17:09 42.03212 8.36208 7295 ft 287 kts 98°
2026-05-04 17:09 42.03005 8.38846 6941 ft 286 kts 98°
2026-05-04 17:10 42.02659 8.43259 6292 ft 284 kts 98°
2026-05-04 17:10 42.02019 8.51522 5076 ft 271 kts 99°
2026-05-04 17:11 42.01825 8.53998 4699 ft 260 kts 99°
2026-05-04 17:11 42.01642 8.56347 4355 ft 245 kts 100°
2026-05-04 17:11 42.01300 8.60675 3739 ft 221 kts 101°
2026-05-04 17:12 42.01136 8.62687 3449 ft 211 kts 101°
2026-05-04 17:12 42.00812 8.66514 2991 ft 200 kts 102°
2026-05-04 17:13 42.00150 8.71651 2982 ft 180 kts 105°
2026-05-04 17:14 41.99522 8.76300 2420 ft 152 kts 101°
2026-05-04 17:14 41.99343 8.77643 2172 ft 143 kts 100°
2026-05-04 17:14 41.99001 8.80216 1714 ft 138 kts 99°
2026-05-04 17:15 41.98697 8.81420 1494 ft 137 kts 122°
2026-05-04 17:15 41.97135 8.82747 1079 ft 137 kts 173°
2026-05-04 17:16 41.95331 8.82084 639 ft 136 kts 205°
2026-05-04 17:16 41.92784 8.80489 33 ft 131 kts 204°
2026-05-04 17:17 41.92072 8.80045 24 ft 90 kts 205°
2026-05-04 17:17 41.91292 8.79398 22 ft 19 kts 334°
2026-05-04 17:18 41.91423 8.79336 23 ft 21 kts 358°
2026-05-04 17:18 41.91683 8.79470 23 ft 18 kts 26°
2026-05-04 17:19 41.91867 8.79586 21 ft 16 kts 25°
2026-05-04 17:19 41.92002 8.79612 21 ft 7 kts 325°
2026-05-04 17:20 41.92022 8.79606 21 ft 0 kts 347°